Location: Cheching
(60.0667°N, 164.2167°W)
Time: 13:35:49
(UTC+00:00)

NOAA 19 - Pass Details

Date: 18 January 2021
Orbit: 840 x 862 km, 99.2° (Epoch: 01 March)

Event Time Altitude Azimuth Distance (km) Brightness Sun altitude
Rises 04:04:01 0° 154° (SSE) 3,433 8.4 -10.1°
Reaches altitude 10° 04:06:23 10° 153° (SSE) 2,499 7.6 -10.4°
Maximum altitude 04:11:56 81° 68° (ENE) 878 5.2 -11.1°
Drops below altitude 10° 04:17:31 10° 342° (NNW) 2,504 7.6 -11.7°
Sets 04:19:53 0° 341° (NNW) 3,441 8.4 -12.0°
